Simultaneous Nadir Overpasses (SNOs) Predictions

Prediction of SNOs between GOES-16 and METOP-C Satellite Orbit:

Table of predicted SNOs for the next 14.0 days since TLE Epoch: 12/17/2023
Index Date Time (GOES-16) GOES-16 Lat,Lon METOP-C Lat,Lon Distance(km) Time Diff (sec)
1 12/18/2023 02:49:06 0.03, -75.22 -0.94, -79.41 478.92 80
2 12/19/2023 02:25:47 0.03, -75.23 0.18, -74.42 91.43 80
3 12/20/2023 14:47:19 -0.03, -75.27 0.82, -78.98 423.80 80
4 12/21/2023 14:23:59 -0.03, -75.28 -0.30, -73.99 146.99 80
5 12/23/2023 02:45:39 0.02, -75.28 -0.70, -78.58 376.01 80
6 12/24/2023 02:22:19 0.03, -75.30 0.42, -73.59 194.95 80
7 12/25/2023 14:41:10 -0.02, -75.34 0.62, -78.14 319.44 80
8 12/26/2023 14:23:11 -0.02, -75.36 -0.51, -73.15 251.99 80
9 12/28/2023 02:42:10 0.01, -75.37 -0.50, -77.74 270.04 80
10 12/29/2023 02:18:50 0.01, -75.39 0.58, -72.74 301.77 80
11 12/30/2023 14:37:42 -0.00, -75.45 0.39, -77.31 211.27 80
